AZA5EG LICJ-OERK

Flight info

Callsign AZA5EG
Flight time N/A
Altitude 35000
Route ROSAS DCT CDC DCT RUTOM UM601 MIL UN134 VANZA N134 KOMEZ/N0443F370 N134 TULEP N318 TAMRO T503 PASIT
Aircraft A320/M-SDE3FGHIRWY/LB1

Departure

Time 2026-04-30 19:04
Airport Falcone–Borsellino Airport (LICJ)

Arrival

Time N/A
Airport King Khalid International Airport (OERK)
Time Latitude Longitude Altitude Speed Heading
2026-04-30 18:34 38.18380 13.10598 60 ft 0 kts 157°
2026-04-30 18:50 38.18394 13.10591 59 ft 2 kts 157°
2026-04-30 18:51 38.18409 13.10582 61 ft 2 kts 157°
2026-04-30 18:51 38.18425 13.10573 58 ft 2 kts 162°
2026-04-30 18:51 38.18441 13.10574 60 ft 2 kts 207°
2026-04-30 18:51 38.18452 13.10585 63 ft 0 kts 246°
2026-04-30 18:54 38.18452 13.10584 65 ft 0 kts 246°
2026-04-30 18:55 38.18446 13.10557 59 ft 4 kts 254°
2026-04-30 18:55 38.18385 13.10500 58 ft 6 kts 202°
2026-04-30 18:55 38.18345 13.10480 63 ft 7 kts 203°
2026-04-30 18:56 38.18265 13.10367 64 ft 9 kts 178°
2026-04-30 18:56 38.18203 13.10328 58 ft 12 kts 237°
2026-04-30 18:56 38.18171 13.10236 60 ft 11 kts 247°
2026-04-30 18:57 38.18107 13.10045 61 ft 12 kts 247°
2026-04-30 18:57 38.18073 13.09946 62 ft 12 kts 247°
2026-04-30 18:57 38.18040 13.09847 60 ft 12 kts 246°
2026-04-30 18:58 38.17972 13.09645 63 ft 12 kts 247°
2026-04-30 18:58 38.17938 13.09546 63 ft 12 kts 246°
2026-04-30 18:58 38.17907 13.09448 64 ft 12 kts 248°
2026-04-30 18:59 38.17854 13.09293 71 ft 8 kts 246°
2026-04-30 19:00 38.17759 13.09008 61 ft 13 kts 245°
2026-04-30 19:00 38.17708 13.08924 63 ft 11 kts 219°
2026-04-30 19:00 38.17656 13.08875 66 ft 0 kts 216°
2026-04-30 19:02 38.17563 13.08785 63 ft 11 kts 218°
2026-04-30 19:03 38.17489 13.08803 70 ft 5 kts 96°
2026-04-30 19:03 38.17606 13.09168 69 ft 71 kts 67°
2026-04-30 19:04 38.18295 13.11171 232 ft 154 kts 63°
2026-04-30 19:04 38.19152 13.13605 1404 ft 158 kts 66°
2026-04-30 19:05 38.20097 13.16503 1924 ft 198 kts 68°
2026-04-30 19:05 38.21681 13.19801 2503 ft 245 kts 39°
2026-04-30 19:06 38.24867 13.21683 3997 ft 257 kts 24°
2026-04-30 19:06 38.26521 13.22555 4857 ft 258 kts 23°
2026-04-30 19:06 38.29898 13.24352 6332 ft 269 kts 20°
2026-04-30 19:07 38.33407 13.26216 7753 ft 277 kts 20°
2026-04-30 19:07 38.35193 13.27167 8489 ft 280 kts 20°
2026-04-30 19:08 38.38816 13.29103 9976 ft 285 kts 20°
2026-04-30 19:08 38.42648 13.31138 10556 ft 322 kts 19°
2026-04-30 19:08 38.44773 13.32262 10873 ft 336 kts 19°
2026-04-30 19:09 38.49152 13.34604 12128 ft 344 kts 19°
2026-04-30 19:09 38.51371 13.35798 12788 ft 347 kts 19°
2026-04-30 19:09 38.53605 13.37003 13436 ft 351 kts 19°
2026-04-30 19:10 38.58144 13.39439 14619 ft 357 kts 18°
2026-04-30 19:10 38.62767 13.41912 15706 ft 364 kts 18°
2026-04-30 19:11 38.65086 13.43160 16238 ft 367 kts 18°
2026-04-30 19:11 38.69830 13.45716 17308 ft 373 kts 18°
2026-04-30 19:11 38.72232 13.47009 17840 ft 376 kts 17°
2026-04-30 19:12 38.74658 13.48316 18371 ft 380 kts 17°
2026-04-30 19:12 38.77102 13.49634 18844 ft 383 kts 17°
2026-04-30 19:12 38.79537 13.51072 19316 ft 390 kts 25°
2026-04-30 19:13 38.83438 13.56134 20222 ft 417 kts 56°
2026-04-30 19:13 38.84858 13.63471 21081 ft 440 kts 88°
2026-04-30 19:13 38.84781 13.67409 21512 ft 443 kts 89°
2026-04-30 19:14 38.84691 13.71378 21939 ft 447 kts 89°
2026-04-30 19:14 38.84596 13.75390 22353 ft 451 kts 89°
2026-04-30 19:14 38.84496 13.79426 22756 ft 454 kts 89°
2026-04-30 19:14 38.84394 13.83487 23155 ft 458 kts 89°
2026-04-30 19:15 38.84290 13.87533 23547 ft 461 kts 89°
2026-04-30 19:15 38.84078 13.95807 24200 ft 467 kts 89°
2026-04-30 19:15 38.83974 13.99984 24525 ft 470 kts 89°
2026-04-30 19:16 38.83871 14.04182 24845 ft 472 kts 89°
2026-04-30 19:16 38.83767 14.08398 25153 ft 474 kts 89°
2026-04-30 19:16 38.83554 14.16899 25753 ft 479 kts 89°
2026-04-30 19:17 38.83437 14.21177 26044 ft 482 kts 89°
2026-04-30 19:17 38.83191 14.29807 26632 ft 486 kts 89°
2026-04-30 19:17 38.83064 14.34155 26916 ft 489 kts 89°
2026-04-30 19:18 38.82857 14.41423 27375 ft 492 kts 89°
2026-04-30 19:18 38.82691 14.47308 27734 ft 495 kts 89°
2026-04-30 19:18 38.82562 14.51736 27997 ft 498 kts 89°
2026-04-30 19:19 38.82431 14.56122 28262 ft 500 kts 89°
2026-04-30 19:19 38.82294 14.60644 28517 ft 502 kts 89°
2026-04-30 19:19 38.82020 14.69562 28993 ft 506 kts 90°
2026-04-30 19:20 38.81876 14.74077 29232 ft 508 kts 90°
2026-04-30 19:20 38.81730 14.78603 29464 ft 510 kts 90°
2026-04-30 19:20 38.81437 14.87720 29890 ft 513 kts 90°
2026-04-30 19:21 38.81287 14.92304 30105 ft 515 kts 90°
2026-04-30 19:21 38.80984 15.01501 30471 ft 518 kts 90°
2026-04-30 19:22 38.80667 15.10714 30938 ft 517 kts 90°
2026-04-30 19:22 38.80168 15.24551 31647 ft 518 kts 90°
2026-04-30 19:23 38.79660 15.38430 32246 ft 520 kts 90°
2026-04-30 19:24 38.79310 15.47698 32685 ft 521 kts 90°
2026-04-30 19:24 38.79131 15.52336 32900 ft 521 kts 90°
2026-04-30 19:24 38.78773 15.61604 33335 ft 521 kts 90°
2026-04-30 19:25 38.78226 15.75538 34000 ft 521 kts 90°
2026-04-30 19:26 38.77850 15.84819 34388 ft 521 kts 90°
2026-04-30 19:26 38.77458 15.94087 34784 ft 520 kts 90°
2026-04-30 19:26 38.77265 15.98708 34974 ft 520 kts 90°
2026-04-30 19:27 38.76881 16.07868 35093 ft 516 kts 90°
2026-04-30 19:28 38.76280 16.21598 35092 ft 514 kts 90°
2026-04-30 19:29 38.75414 16.39894 35096 ft 514 kts 91°
2026-04-30 19:30 38.73929 16.58113 35123 ft 514 kts 94°
2026-04-30 19:31 38.72398 16.76324 35143 ft 514 kts 93°
2026-04-30 19:31 38.71286 16.89981 35135 ft 514 kts 93°
2026-04-30 19:32 38.70527 16.99084 35132 ft 514 kts 93°
2026-04-30 19:32 38.69763 17.08134 35139 ft 514 kts 93°
2026-04-30 19:33 38.68989 17.17224 35138 ft 514 kts 94°
2026-04-30 19:33 38.68195 17.26315 35135 ft 513 kts 94°
2026-04-30 19:34 38.67403 17.35403 35128 ft 513 kts 94°
2026-04-30 19:35 38.66215 17.48945 35130 ft 512 kts 94°
2026-04-30 19:35 38.65407 17.58005 35128 ft 512 kts 94°
2026-04-30 19:36 38.64730 17.65519 35120 ft 512 kts 94°
2026-04-30 19:36 38.63366 17.80563 35123 ft 511 kts 94°
2026-04-30 19:37 38.62673 17.88130 35125 ft 511 kts 94°
2026-04-30 19:37 38.61842 17.97159 35121 ft 511 kts 94°
2026-04-30 19:38 38.61003 18.06171 35115 ft 510 kts 94°
2026-04-30 19:38 38.60157 18.15179 35130 ft 510 kts 94°
2026-04-30 19:39 38.59300 18.24172 35110 ft 510 kts 94°
2026-04-30 19:39 38.58444 18.33114 35100 ft 510 kts 94°
2026-04-30 19:40 38.57583 18.42122 35094 ft 510 kts 94°
2026-04-30 19:40 38.56712 18.51117 35101 ft 510 kts 95°
2026-04-30 19:41 38.55829 18.60108 35099 ft 510 kts 95°
2026-04-30 19:41 38.54937 18.69101 35100 ft 510 kts 95°
2026-04-30 19:42 38.54037 18.78098 35106 ft 510 kts 95°
2026-04-30 19:42 38.53138 18.87080 35106 ft 509 kts 95°
2026-04-30 19:43 38.52236 18.96047 35102 ft 509 kts 95°
2026-04-30 19:44 38.49449 19.09090 35093 ft 511 kts 108°
2026-04-30 19:44 38.47191 19.17685 35091 ft 510 kts 108°
2026-04-30 19:45 38.44939 19.26265 35088 ft 510 kts 108°
2026-04-30 19:45 38.42672 19.34834 35086 ft 510 kts 108°
2026-04-30 19:46 38.40396 19.43393 35080 ft 510 kts 108°
2026-04-30 19:46 38.38118 19.51947 35093 ft 510 kts 108°
2026-04-30 19:47 38.35834 19.60509 35085 ft 509 kts 108°
2026-04-30 19:47 38.33541 19.69043 35061 ft 509 kts 108°
2026-04-30 19:48 38.31244 19.77563 35067 ft 508 kts 108°
2026-04-30 19:48 38.28950 19.86075 35074 ft 508 kts 108°
2026-04-30 19:49 38.26664 19.94505 35071 ft 507 kts 108°
2026-04-30 19:49 38.23197 20.07210 35063 ft 506 kts 108°
2026-04-30 19:50 38.20885 20.15681 35068 ft 506 kts 108°
2026-04-30 19:50 38.18575 20.24126 35075 ft 506 kts 108°
2026-04-30 19:51 38.16254 20.32566 35072 ft 505 kts 108°
2026-04-30 19:51 38.13924 20.40993 35069 ft 505 kts 108°
2026-04-30 19:52 38.11585 20.49399 35074 ft 505 kts 110°
2026-04-30 19:52 38.08675 20.57453 35073 ft 505 kts 115°
2026-04-30 19:53 38.05647 20.65498 35069 ft 505 kts 115°
2026-04-30 19:53 38.02597 20.73572 35065 ft 504 kts 115°
2026-04-30 19:54 37.99582 20.81538 35062 ft 504 kts 115°
2026-04-30 19:54 37.96549 20.89534 35076 ft 502 kts 115°
2026-04-30 19:55 37.93524 20.97489 35076 ft 501 kts 115°
2026-04-30 19:55 37.90498 21.05435 35073 ft 500 kts 115°
2026-04-30 19:56 37.87470 21.13364 35069 ft 500 kts 115°
2026-04-30 19:56 37.84441 21.21268 35078 ft 499 kts 115°
2026-04-30 19:57 37.81410 21.29163 35068 ft 498 kts 115°
2026-04-30 19:57 37.78380 21.37023 35068 ft 497 kts 115°
2026-04-30 19:58 37.75341 21.44874 35062 ft 497 kts 115°
2026-04-30 19:58 37.72307 21.52704 35056 ft 496 kts 115°
2026-04-30 19:59 37.69272 21.60541 35054 ft 497 kts 115°
2026-04-30 20:00 37.64710 21.72289 35052 ft 497 kts 115°
2026-04-30 20:00 37.61652 21.80103 35066 ft 496 kts 116°
2026-04-30 20:01 37.57093 21.91744 35076 ft 495 kts 116°
2026-04-30 20:01 37.54021 21.99564 35075 ft 494 kts 116°
2026-04-30 20:02 37.49450 22.11142 35068 ft 494 kts 116°
2026-04-30 20:03 37.44855 22.22727 35074 ft 492 kts 117°
2026-04-30 20:03 37.41797 22.30424 35069 ft 491 kts 117°
2026-04-30 20:04 37.39124 22.38327 35039 ft 491 kts 109°
2026-04-30 20:05 37.35626 22.50423 35050 ft 490 kts 109°
2026-04-30 20:05 37.32125 22.62420 35044 ft 489 kts 109°
2026-04-30 20:06 37.29775 22.70442 35039 ft 489 kts 109°
2026-04-30 20:06 37.27423 22.78455 35033 ft 488 kts 109°
2026-04-30 20:07 37.25069 22.86440 35022 ft 487 kts 109°
2026-04-30 20:08 37.21539 22.98382 35021 ft 486 kts 109°
2026-04-30 20:08 37.19183 23.06337 35019 ft 486 kts 110°
2026-04-30 20:09 37.16832 23.14225 35009 ft 486 kts 110°
2026-04-30 20:09 37.13282 23.26102 35003 ft 485 kts 110°
2026-04-30 20:10 37.09730 23.37965 34996 ft 484 kts 110°
2026-04-30 20:11 37.06163 23.49801 34993 ft 484 kts 111°
2026-04-30 20:11 37.03773 23.57675 34992 ft 484 kts 111°
2026-04-30 20:12 37.00190 23.69470 34989 ft 483 kts 111°
2026-04-30 20:13 36.97799 23.77332 34994 ft 483 kts 111°
2026-04-30 20:13 36.95398 23.85191 34993 ft 483 kts 111°
2026-04-30 20:14 36.92997 23.93024 34989 ft 483 kts 111°
2026-04-30 20:14 36.90591 24.00857 34991 ft 483 kts 111°
2026-04-30 20:15 36.88187 24.08682 34988 ft 482 kts 112°
2026-04-30 20:15 36.85793 24.16445 34992 ft 482 kts 112°
2026-04-30 20:16 36.83372 24.24266 34992 ft 482 kts 112°
2026-04-30 20:16 36.80947 24.32075 34994 ft 482 kts 112°
2026-04-30 20:17 36.78524 24.39866 34989 ft 482 kts 112°
2026-04-30 20:17 36.76093 24.47655 34989 ft 482 kts 112°
2026-04-30 20:18 36.73609 24.55407 34991 ft 481 kts 114°
2026-04-30 20:18 36.70869 24.63023 34992 ft 481 kts 116°
2026-04-30 20:19 36.68049 24.70527 34972 ft 481 kts 116°
2026-04-30 20:19 36.65249 24.78099 34983 ft 482 kts 116°
2026-04-30 20:20 36.62481 24.85711 34984 ft 483 kts 115°
2026-04-30 20:20 36.59720 24.93326 34987 ft 483 kts 116°
2026-04-30 20:21 36.56937 25.00938 34994 ft 483 kts 116°
2026-04-30 20:21 36.54141 25.08542 34991 ft 483 kts 116°
2026-04-30 20:22 36.51338 25.16133 34997 ft 483 kts 116°
2026-04-30 20:22 36.48532 25.23735 34998 ft 483 kts 116°
2026-04-30 20:23 36.45740 25.31332 35016 ft 483 kts 116°
2026-04-30 20:23 36.42936 25.38926 35014 ft 484 kts 116°
2026-04-30 20:24 36.40112 25.46511 35019 ft 484 kts 116°
2026-04-30 20:24 36.37297 25.54039 35020 ft 484 kts 116°
2026-04-30 20:25 36.33049 25.65419 35014 ft 484 kts 116°
2026-04-30 20:26 36.29245 25.75551 35011 ft 484 kts 116°
2026-04-30 20:26 36.24994 25.86852 35007 ft 484 kts 116°
2026-04-30 20:27 36.19282 26.01972 34998 ft 485 kts 117°
2026-04-30 20:28 36.13535 26.17102 34999 ft 486 kts 117°
2026-04-30 20:30 36.06309 26.36043 34984 ft 490 kts 117°
2026-04-30 20:31 35.97512 26.58918 35000 ft 492 kts 117°
2026-04-30 20:32 35.90122 26.78014 35010 ft 494 kts 117°
2026-04-30 20:33 35.85670 26.89474 35014 ft 494 kts 118°
2026-04-30 20:34 35.81202 27.00871 35021 ft 494 kts 118°
2026-04-30 20:35 35.76708 27.12310 35032 ft 495 kts 118°
2026-04-30 20:35 35.72211 27.23753 35014 ft 495 kts 118°
2026-04-30 20:36 35.69198 27.31379 35015 ft 496 kts 118°
2026-04-30 20:37 35.64665 27.42816 35019 ft 496 kts 118°
2026-04-30 20:37 35.61635 27.50437 35021 ft 496 kts 118°
2026-04-30 20:38 35.58601 27.58056 35023 ft 496 kts 118°
2026-04-30 20:38 35.55589 27.65619 35024 ft 496 kts 118°
2026-04-30 20:39 35.51024 27.77021 35002 ft 497 kts 118°
2026-04-30 20:40 35.46436 27.88440 35005 ft 498 kts 118°
2026-04-30 20:40 35.43369 27.96066 35015 ft 498 kts 118°
2026-04-30 20:41 35.38756 28.07501 35008 ft 499 kts 118°
2026-04-30 20:41 35.35663 28.15124 35009 ft 499 kts 118°
2026-04-30 20:42 35.32566 28.22737 35012 ft 500 kts 118°
2026-04-30 20:43 35.27905 28.34160 35018 ft 500 kts 118°
2026-04-30 20:43 35.25460 28.42093 35024 ft 502 kts 110°
2026-04-30 20:44 35.22046 28.54199 35024 ft 502 kts 110°
2026-04-30 20:45 35.17468 28.70310 35005 ft 501 kts 110°
2026-04-30 20:45 35.15184 28.78359 35006 ft 501 kts 110°
2026-04-30 20:46 35.10588 28.94436 35013 ft 501 kts 110°
2026-04-30 20:47 35.07113 29.06471 35012 ft 501 kts 110°
2026-04-30 20:48 35.03634 29.18523 35016 ft 501 kts 110°
2026-04-30 20:48 35.01306 29.26539 35018 ft 501 kts 110°
2026-04-30 20:49 34.98967 29.34546 35021 ft 501 kts 111°
2026-04-30 20:50 34.94930 29.46279 35024 ft 500 kts 116°
2026-04-30 20:50 34.92098 29.53961 35020 ft 500 kts 115°
2026-04-30 20:51 34.89321 29.61738 35018 ft 500 kts 115°
2026-04-30 20:51 34.85231 29.73426 35019 ft 500 kts 115°
2026-04-30 20:52 34.82484 29.81218 35029 ft 501 kts 115°
2026-04-30 20:53 34.78320 29.92865 35030 ft 500 kts 115°
2026-04-30 20:53 34.75398 30.00518 35018 ft 498 kts 123°
2026-04-30 20:54 34.69593 30.10929 35017 ft 496 kts 127°
2026-04-30 20:55 34.63744 30.21281 34998 ft 496 kts 127°
2026-04-30 20:55 34.59854 30.28151 35000 ft 497 kts 127°
2026-04-30 20:56 34.53951 30.38505 35005 ft 498 kts 127°
2026-04-30 20:57 34.48029 30.48867 35021 ft 498 kts 127°
2026-04-30 20:57 34.44080 30.55775 35040 ft 500 kts 127°
2026-04-30 20:58 34.40111 30.62711 35359 ft 502 kts 128°
2026-04-30 20:58 34.38123 30.66184 35555 ft 501 kts 128°
2026-04-30 20:58 34.36136 30.69653 35744 ft 501 kts 128°
2026-04-30 20:58 34.34150 30.73112 35933 ft 501 kts 128°
2026-04-30 20:59 34.30168 30.80017 36313 ft 500 kts 128°
2026-04-30 20:59 34.28174 30.83459 36477 ft 499 kts 128°
2026-04-30 21:00 34.24191 30.90333 36810 ft 499 kts 128°
2026-04-30 21:00 34.20245 30.97153 37029 ft 499 kts 128°
2026-04-30 21:01 34.14281 31.07446 37027 ft 498 kts 128°
2026-04-30 21:02 34.08300 31.17708 37027 ft 498 kts 128°
2026-04-30 21:02 34.04304 31.24540 37015 ft 498 kts 128°
2026-04-30 21:03 34.00306 31.31365 37024 ft 498 kts 128°
2026-04-30 21:03 33.96302 31.38182 37036 ft 498 kts 128°
2026-04-30 21:04 33.92299 31.44991 37032 ft 498 kts 128°
2026-04-30 21:04 33.86290 31.55209 37031 ft 498 kts 128°
2026-04-30 21:05 33.82285 31.62004 37036 ft 498 kts 128°
2026-04-30 21:05 33.78276 31.68784 37008 ft 498 kts 128°
2026-04-30 21:06 33.74355 31.75589 37010 ft 499 kts 127°
2026-04-30 21:06 33.70452 31.82481 37010 ft 499 kts 127°
2026-04-30 21:07 33.66537 31.89367 37019 ft 499 kts 127°
2026-04-30 21:07 33.62593 31.96223 37027 ft 499 kts 128°
2026-04-30 21:08 33.58636 32.03070 37028 ft 499 kts 128°
2026-04-30 21:08 33.54686 32.09909 37028 ft 499 kts 127°
2026-04-30 21:09 33.50740 32.16742 37029 ft 498 kts 128°
2026-04-30 21:09 33.46790 32.23559 37031 ft 498 kts 128°
2026-04-30 21:10 33.42836 32.30381 37031 ft 498 kts 128°
2026-04-30 21:10 33.38902 32.37144 37046 ft 498 kts 128°
2026-04-30 21:11 33.34938 32.43940 37015 ft 498 kts 128°
2026-04-30 21:11 33.30967 32.50727 37014 ft 498 kts 128°
2026-04-30 21:12 33.26999 32.57507 37014 ft 498 kts 128°
2026-04-30 21:12 33.23023 32.64307 37012 ft 498 kts 128°
2026-04-30 21:13 33.19046 32.71095 37024 ft 499 kts 128°
2026-04-30 21:13 33.15081 32.77830 37036 ft 499 kts 128°
2026-04-30 21:14 33.11088 32.84611 37036 ft 499 kts 128°
2026-04-30 21:14 33.07095 32.91393 37039 ft 499 kts 128°
2026-04-30 21:15 33.03112 32.98162 37039 ft 499 kts 128°
2026-04-30 21:15 32.99794 33.03789 37040 ft 499 kts 128°
2026-04-30 21:16 32.95803 33.10556 37039 ft 499 kts 128°
2026-04-30 21:16 32.91811 33.17312 37037 ft 499 kts 128°
2026-04-30 21:17 32.87815 33.24064 37019 ft 499 kts 128°
2026-04-30 21:17 32.83819 33.30804 37024 ft 499 kts 128°
2026-04-30 21:18 32.79814 33.37543 37036 ft 499 kts 128°
2026-04-30 21:18 32.75804 33.44278 37035 ft 499 kts 128°
2026-04-30 21:19 32.71790 33.50994 37040 ft 499 kts 129°
2026-04-30 21:19 32.67769 33.57714 37039 ft 499 kts 129°
2026-04-30 21:20 32.63780 33.64385 37042 ft 499 kts 128°
2026-04-30 21:20 32.59762 33.71096 37035 ft 499 kts 129°
2026-04-30 21:21 32.55736 33.77800 37039 ft 499 kts 129°
2026-04-30 21:22 32.49692 33.87833 37045 ft 498 kts 129°
2026-04-30 21:23 32.41629 34.01193 37012 ft 499 kts 129°
2026-04-30 21:23 32.36000 34.11570 37018 ft 503 kts 119°
2026-04-30 21:24 32.32870 34.18976 37026 ft 503 kts 119°
2026-04-30 21:24 32.29743 34.26322 37029 ft 503 kts 119°
2026-04-30 21:25 32.25008 34.37396 37026 ft 503 kts 119°
2026-04-30 21:26 32.20276 34.48476 37004 ft 504 kts 120°
2026-04-30 21:27 32.16105 34.59871 37016 ft 507 kts 104°
2026-04-30 21:27 32.14749 34.68001 37009 ft 508 kts 102°
2026-04-30 21:28 32.12706 34.80293 37019 ft 510 kts 102°
2026-04-30 21:29 32.10374 34.92510 37033 ft 508 kts 111°
2026-04-30 21:30 32.04721 35.12265 37038 ft 508 kts 110°
2026-04-30 21:31 31.99009 35.31946 37030 ft 508 kts 111°
2026-04-30 21:32 31.95612 35.43758 37032 ft 507 kts 110°
2026-04-30 21:32 31.93317 35.51619 37020 ft 506 kts 114°
2026-04-30 21:33 31.89054 35.62925 37029 ft 505 kts 118°
2026-04-30 21:34 31.86043 35.70383 37036 ft 505 kts 118°
2026-04-30 21:34 31.81689 35.81699 37039 ft 506 kts 117°
2026-04-30 21:35 31.78825 35.89259 37051 ft 506 kts 117°
2026-04-30 21:35 31.75942 35.96803 37054 ft 506 kts 117°
2026-04-30 21:36 31.73038 36.04339 37056 ft 506 kts 117°
2026-04-30 21:37 31.67217 36.19390 37054 ft 506 kts 117°
2026-04-30 21:37 31.64322 36.26866 37038 ft 506 kts 117°
2026-04-30 21:38 31.61398 36.34394 37042 ft 506 kts 117°
2026-04-30 21:38 31.58467 36.41920 37034 ft 506 kts 118°
2026-04-30 21:39 31.55538 36.49424 37020 ft 506 kts 117°
2026-04-30 21:39 31.52610 36.56927 36997 ft 506 kts 118°
2026-04-30 21:40 31.49679 36.64425 36999 ft 506 kts 118°
2026-04-30 21:40 31.46758 36.71867 36993 ft 506 kts 118°
2026-04-30 21:41 31.43815 36.79363 36978 ft 506 kts 118°
2026-04-30 21:41 31.40866 36.86848 36969 ft 506 kts 118°
2026-04-30 21:42 31.37906 36.94325 36959 ft 506 kts 118°
2026-04-30 21:42 31.34941 37.01804 36958 ft 506 kts 118°
2026-04-30 21:43 31.31993 37.09236 36956 ft 506 kts 118°
2026-04-30 21:43 31.29028 37.16699 36955 ft 506 kts 118°
2026-04-30 21:44 31.26080 37.24177 36936 ft 507 kts 115°
2026-04-30 21:44 31.23711 37.31962 36937 ft 509 kts 112°
2026-04-30 21:45 31.21359 37.39760 36938 ft 509 kts 112°
2026-04-30 21:45 31.18995 37.47562 36935 ft 509 kts 112°
2026-04-30 21:46 31.16623 37.55362 36930 ft 509 kts 113°
2026-04-30 21:46 31.14249 37.63144 36932 ft 509 kts 112°
2026-04-30 21:47 31.11903 37.70878 36931 ft 509 kts 112°
2026-04-30 21:47 31.09536 37.78675 36928 ft 510 kts 113°
2026-04-30 21:48 31.07150 37.86472 36932 ft 510 kts 113°
2026-04-30 21:48 31.04764 37.94261 36938 ft 510 kts 113°
2026-04-30 21:49 31.02377 38.02049 36936 ft 510 kts 113°
2026-04-30 21:49 30.99987 38.09834 36940 ft 510 kts 113°
2026-04-30 21:50 30.97585 38.17618 36942 ft 510 kts 113°
2026-04-30 21:50 30.95178 38.25385 36940 ft 510 kts 114°
2026-04-30 21:51 30.92772 38.33149 36956 ft 509 kts 114°
2026-04-30 21:51 30.90364 38.40909 36966 ft 509 kts 114°
2026-04-30 21:52 30.87946 38.48664 36976 ft 509 kts 114°
2026-04-30 21:52 30.85529 38.56404 36973 ft 509 kts 114°
2026-04-30 21:53 30.83125 38.64083 36972 ft 509 kts 114°
2026-04-30 21:53 30.80702 38.71814 36972 ft 508 kts 114°
2026-04-30 21:54 30.78060 38.79419 36985 ft 504 kts 121°
2026-04-30 21:54 30.74935 38.86710 37002 ft 504 kts 121°
2026-04-30 21:55 30.71803 38.93989 36999 ft 503 kts 121°
2026-04-30 21:55 30.68673 39.01272 37000 ft 503 kts 121°
2026-04-30 21:56 30.65549 39.08552 37010 ft 503 kts 121°
2026-04-30 21:56 30.62409 39.15818 37007 ft 503 kts 122°
2026-04-30 21:57 30.59289 39.23039 37013 ft 504 kts 122°
2026-04-30 21:57 30.56144 39.30323 37017 ft 505 kts 121°
2026-04-30 21:58 30.52992 39.37607 37024 ft 505 kts 122°
2026-04-30 21:58 30.49823 39.44887 37040 ft 505 kts 122°
2026-04-30 21:59 30.46646 39.52160 37044 ft 505 kts 122°
2026-04-30 22:00 30.41884 39.63051 37049 ft 504 kts 124°
2026-04-30 22:00 30.35900 39.72851 37054 ft 495 kts 133°
2026-04-30 22:01 30.31807 39.79202 37058 ft 495 kts 133°
2026-04-30 22:01 30.27695 39.85598 37044 ft 495 kts 133°
2026-04-30 22:02 30.23575 39.91996 37021 ft 496 kts 133°
2026-04-30 22:02 30.19449 39.98377 37028 ft 496 kts 133°
2026-04-30 22:03 30.15311 40.04764 37020 ft 496 kts 134°
2026-04-30 22:03 30.11168 40.11144 37034 ft 496 kts 133°
2026-04-30 22:04 30.07026 40.17531 37049 ft 497 kts 133°
2026-04-30 22:05 30.00806 40.27105 37050 ft 497 kts 134°
2026-04-30 22:05 29.96672 40.33437 37041 ft 497 kts 134°
2026-04-30 22:06 29.92510 40.39815 37041 ft 498 kts 134°
2026-04-30 22:06 29.86262 40.49378 37033 ft 498 kts 134°
2026-04-30 22:07 29.82083 40.55748 37037 ft 499 kts 134°
2026-04-30 22:07 29.77891 40.62120 37038 ft 499 kts 134°
2026-04-30 22:08 29.74061 40.68852 37039 ft 505 kts 128°
2026-04-30 22:08 29.70996 40.74567 37017 ft 505 kts 128°
2026-04-30 22:09 29.67295 40.81442 37027 ft 506 kts 128°
2026-04-30 22:09 29.63577 40.88318 37031 ft 506 kts 128°
2026-04-30 22:10 29.59863 40.95188 37015 ft 506 kts 128°
2026-04-30 22:10 29.56145 41.02053 37021 ft 506 kts 128°
2026-04-30 22:11 29.50559 41.12337 37031 ft 506 kts 128°
2026-04-30 22:12 29.46831 41.19188 37024 ft 506 kts 128°
2026-04-30 22:12 29.43128 41.25995 37037 ft 506 kts 128°
2026-04-30 22:13 29.39375 41.32882 37040 ft 506 kts 129°
2026-04-30 22:13 29.35661 41.39676 37030 ft 506 kts 129°
2026-04-30 22:14 29.31919 41.46515 37036 ft 506 kts 129°
2026-04-30 22:14 29.28178 41.53345 37034 ft 506 kts 129°
2026-04-30 22:15 29.24430 41.60170 37029 ft 506 kts 129°
2026-04-30 22:15 29.20669 41.66986 37021 ft 506 kts 129°
2026-04-30 22:16 29.16904 41.73805 37022 ft 507 kts 129°
2026-04-30 22:17 29.08526 41.86534 37013 ft 498 kts 138°
2026-04-30 22:17 29.01811 41.95602 36997 ft 498 kts 139°
2026-04-30 22:18 28.95093 42.04648 36998 ft 498 kts 139°
2026-04-30 22:19 28.88413 42.13659 37016 ft 498 kts 139°
2026-04-30 22:20 28.81692 42.22679 37003 ft 497 kts 139°
2026-04-30 22:20 28.74963 42.31681 37011 ft 497 kts 139°
2026-04-30 22:21 28.70486 42.37681 37006 ft 497 kts 139°
2026-04-30 22:21 28.66010 42.43680 36994 ft 497 kts 139°
2026-04-30 22:22 28.61533 42.49664 36978 ft 496 kts 139°
2026-04-30 22:22 28.57054 42.55635 36998 ft 496 kts 139°
2026-04-30 22:23 28.52599 42.61558 36996 ft 495 kts 140°
2026-04-30 22:23 28.48113 42.67504 37008 ft 495 kts 140°
2026-04-30 22:24 28.43628 42.73440 37011 ft 495 kts 140°
2026-04-30 22:24 28.39161 42.79382 37011 ft 494 kts 139°
2026-04-30 22:25 28.34682 42.85315 37011 ft 494 kts 140°
2026-04-30 22:25 28.30200 42.91229 37010 ft 494 kts 140°
2026-04-30 22:26 28.23503 43.00048 37008 ft 494 kts 140°
2026-04-30 22:27 28.19016 43.05957 36989 ft 494 kts 140°
2026-04-30 22:27 28.12288 43.14806 36987 ft 494 kts 140°
2026-04-30 22:28 28.05550 43.23632 36992 ft 494 kts 140°
2026-04-30 22:29 27.96571 43.35376 37008 ft 493 kts 140°
2026-04-30 22:31 27.80880 43.55844 37008 ft 493 kts 141°
2026-04-30 22:32 27.69618 43.70448 36999 ft 493 kts 141°
2026-04-30 22:33 27.58388 43.84977 36982 ft 492 kts 141°
2026-04-30 22:35 27.47129 43.99507 37008 ft 492 kts 141°
2026-04-30 22:36 27.35855 44.13991 37005 ft 492 kts 141°
2026-04-30 22:37 27.26833 44.25553 36977 ft 491 kts 141°
2026-04-30 22:38 27.17814 44.37051 37007 ft 490 kts 141°
2026-04-30 22:39 27.10779 44.45245 36996 ft 482 kts 146°
2026-04-30 22:40 26.96378 44.60886 37018 ft 482 kts 145°
2026-04-30 22:41 26.84486 44.74039 37012 ft 479 kts 146°
2026-04-30 22:43 26.70250 44.89669 37020 ft 477 kts 146°
2026-04-30 22:44 26.60762 45.00055 37033 ft 477 kts 146°
2026-04-30 22:45 26.46631 45.15493 37030 ft 473 kts 146°
2026-04-30 22:46 26.41926 45.20621 36798 ft 472 kts 146°
2026-04-30 22:47 26.32424 45.30949 33899 ft 478 kts 146°
2026-04-30 22:47 26.27673 45.36100 32666 ft 474 kts 145°
2026-04-30 22:48 26.22974 45.41202 31486 ft 469 kts 144°
2026-04-30 22:49 26.15979 45.48781 29690 ft 466 kts 143°
2026-04-30 22:49 26.09072 45.56244 28012 ft 455 kts 143°
2026-04-30 22:50 26.00153 45.65867 25972 ft 441 kts 142°
2026-04-30 22:51 25.95766 45.70579 24940 ft 436 kts 141°
2026-04-30 22:51 25.91418 45.75244 23884 ft 433 kts 140°
2026-04-30 22:52 25.89260 45.77562 23441 ft 428 kts 140°
2026-04-30 22:52 25.85022 45.82115 22456 ft 420 kts 140°
2026-04-30 22:53 25.80845 45.86595 21446 ft 415 kts 141°
2026-04-30 22:53 25.76756 45.90980 20479 ft 406 kts 141°
2026-04-30 22:53 25.74737 45.93143 19650 ft 401 kts 141°
2026-04-30 22:54 25.70842 45.97322 18626 ft 377 kts 141°
2026-04-30 22:55 25.65443 46.03103 17242 ft 343 kts 142°
2026-04-30 22:55 25.61865 46.06889 15484 ft 371 kts 142°
2026-04-30 22:56 25.58047 46.10926 12928 ft 388 kts 141°
2026-04-30 22:56 25.52132 46.17234 8797 ft 384 kts 139°
2026-04-30 22:57 25.48620 46.21011 8370 ft 319 kts 139°
2026-04-30 22:57 25.45690 46.24145 8121 ft 268 kts 139°
2026-04-30 22:58 25.43197 46.26790 7882 ft 233 kts 139°
2026-04-30 22:59 25.39789 46.30385 7524 ft 222 kts 138°
2026-04-30 22:59 25.36837 46.33512 7207 ft 219 kts 137°